Location: C�mpuri de-Sus
(45.9500°N, 22.5500°E)
Time: 13:27:11
(UTC+00:00)

Cosmos 2333 Rocket - Pass Details

Date: 24 October 2021
Orbit: 837 x 865 km, 70.8° (Epoch: 07 December)

Event Time Altitude Azimuth Distance (km) Brightness Sun altitude
Rises 16:38:30 0° 160° (SSE) 3,382 5.2 -12.8°
Reaches altitude 10° 16:41:35 10° 143° (SE) 2,457 4.3 -13.4°
Enters shadow 16:45:24 19° 100° (E) 1,897 3.4 -14.0°
